Year,Month,Day,Hour,Minute,Value (Times are PST for temperature in C)
2014,08,03,00,00,20.20
2014,08,03,00,01,20.20
2014,08,03,00,02,20.10
2014,08,03,00,03,20.10
2014,08,03,00,04,20.10
2014,08,03,00,05,20.00
2014,08,03,00,06,20.00
2014,08,03,00,07,20.00
2014,08,03,00,08,19.90
2014,08,03,00,09,19.90
2014,08,03,00,10,19.80
2014,08,03,00,11,19.80
2014,08,03,00,12,19.80
2014,08,03,00,13,19.80
2014,08,03,00,14,19.80
2014,08,03,00,15,19.80
2014,08,03,00,16,19.90
2014,08,03,00,17,19.90
2014,08,03,00,18,19.90
2014,08,03,00,19,19.90
2014,08,03,00,20,19.90
2014,08,03,00,21,19.90
2014,08,03,00,22,19.90
2014,08,03,00,23,20.00
2014,08,03,00,24,20.00
2014,08,03,00,25,20.00
2014,08,03,00,26,20.00
2014,08,03,00,27,20.00
2014,08,03,00,28,20.00
2014,08,03,00,29,20.00
2014,08,03,00,30,20.00
2014,08,03,00,31,20.00
2014,08,03,00,32,20.00
2014,08,03,00,33,20.00
2014,08,03,00,34,19.90
2014,08,03,00,35,19.90
2014,08,03,00,36,19.90
2014,08,03,00,37,19.90
2014,08,03,00,38,19.90
2014,08,03,00,39,19.80
2014,08,03,00,40,19.80
2014,08,03,00,41,19.80
2014,08,03,00,42,19.70
2014,08,03,00,43,19.70
2014,08,03,00,44,19.70
2014,08,03,00,45,19.60
2014,08,03,00,46,19.60
2014,08,03,00,47,19.60
2014,08,03,00,48,19.60
2014,08,03,00,49,19.50
2014,08,03,00,50,19.50
2014,08,03,00,51,19.50
2014,08,03,00,52,19.50
2014,08,03,00,53,19.40
2014,08,03,00,54,19.40
2014,08,03,00,55,19.40
2014,08,03,00,56,19.40
2014,08,03,00,57,19.30
2014,08,03,00,58,19.30
2014,08,03,00,59,19.30
2014,08,03,01,00,19.30
2014,08,03,01,01,19.30
2014,08,03,01,02,19.30
2014,08,03,01,03,19.30
2014,08,03,01,04,19.30
2014,08,03,01,05,19.30
2014,08,03,01,06,19.30
2014,08,03,01,07,19.20
2014,08,03,01,08,19.20
2014,08,03,01,09,19.20
2014,08,03,01,10,19.20
2014,08,03,01,11,19.20
2014,08,03,01,12,19.20
2014,08,03,01,13,19.20
2014,08,03,01,14,19.10
2014,08,03,01,15,19.10
2014,08,03,01,16,19.10
2014,08,03,01,17,19.10
2014,08,03,01,18,19.10
2014,08,03,01,19,19.10
2014,08,03,01,20,19.10
2014,08,03,01,21,19.10
2014,08,03,01,22,19.10
2014,08,03,01,23,19.10
2014,08,03,01,24,19.10
2014,08,03,01,25,19.10
2014,08,03,01,26,19.00
2014,08,03,01,27,19.00
2014,08,03,01,28,19.00
2014,08,03,01,29,19.00
2014,08,03,01,30,18.90
2014,08,03,01,31,18.90
2014,08,03,01,32,18.90
2014,08,03,01,33,18.90
2014,08,03,01,34,18.80
2014,08,03,01,35,18.80
2014,08,03,01,36,18.80
2014,08,03,01,37,18.80
2014,08,03,01,38,18.80
2014,08,03,01,39,18.80
2014,08,03,01,40,18.70
2014,08,03,01,41,18.70
2014,08,03,01,42,18.70
2014,08,03,01,43,18.70
2014,08,03,01,44,18.70
2014,08,03,01,45,18.60
2014,08,03,01,46,18.60
2014,08,03,01,47,18.60
2014,08,03,01,48,18.60
2014,08,03,01,49,18.50
2014,08,03,01,50,18.50
2014,08,03,01,51,18.40
2014,08,03,01,52,18.40
2014,08,03,01,53,18.40
2014,08,03,01,54,18.30
2014,08,03,01,55,18.30
2014,08,03,01,56,18.30
2014,08,03,01,57,18.20
2014,08,03,01,58,18.20
2014,08,03,01,59,18.20
2014,08,03,02,00,18.10
2014,08,03,02,01,18.10
2014,08,03,02,02,18.00
2014,08,03,02,03,18.00
2014,08,03,02,04,17.90
2014,08,03,02,05,17.90
2014,08,03,02,06,17.90
2014,08,03,02,07,17.90
2014,08,03,02,08,17.80
2014,08,03,02,09,17.80
2014,08,03,02,10,17.80
2014,08,03,02,11,17.80
2014,08,03,02,12,17.70
2014,08,03,02,13,17.70
2014,08,03,02,14,17.70
2014,08,03,02,15,17.70
2014,08,03,02,16,17.70
2014,08,03,02,17,17.70
2014,08,03,02,18,17.70
2014,08,03,02,19,17.70
2014,08,03,02,20,17.70
2014,08,03,02,21,17.70
2014,08,03,02,22,17.70
2014,08,03,02,23,17.70
2014,08,03,02,24,17.80
2014,08,03,02,25,17.80
2014,08,03,02,26,17.80
2014,08,03,02,27,17.80
2014,08,03,02,28,17.80
2014,08,03,02,29,17.80
2014,08,03,02,30,17.80
2014,08,03,02,31,17.80
2014,08,03,02,32,17.80
2014,08,03,02,33,17.80
2014,08,03,02,34,17.80
2014,08,03,02,35,17.80
2014,08,03,02,36,17.80
2014,08,03,02,37,17.80
2014,08,03,02,38,17.80
2014,08,03,02,39,17.80
2014,08,03,02,40,17.80
2014,08,03,02,41,17.80
2014,08,03,02,42,17.80
2014,08,03,02,43,17.80
2014,08,03,02,44,17.80
2014,08,03,02,45,17.80
2014,08,03,02,46,17.70
2014,08,03,02,47,17.70
2014,08,03,02,48,17.70
2014,08,03,02,49,17.70
2014,08,03,02,50,17.70
2014,08,03,02,51,17.70
2014,08,03,02,52,17.60
2014,08,03,02,53,17.60
2014,08,03,02,54,17.60
2014,08,03,02,55,17.60
2014,08,03,02,56,17.60
2014,08,03,02,57,17.50
2014,08,03,02,58,17.50
2014,08,03,02,59,17.50
2014,08,03,03,00,17.40
2014,08,03,03,01,17.40
2014,08,03,03,02,17.40
2014,08,03,03,03,17.40
2014,08,03,03,04,17.30
2014,08,03,03,05,17.30
2014,08,03,03,06,17.30
2014,08,03,03,07,17.30
2014,08,03,03,08,17.20
2014,08,03,03,09,17.20
2014,08,03,03,10,17.20
2014,08,03,03,11,17.20
2014,08,03,03,12,17.20
2014,08,03,03,13,17.10
2014,08,03,03,14,17.10
2014,08,03,03,15,17.10
2014,08,03,03,16,17.10
2014,08,03,03,17,17.10
2014,08,03,03,18,17.10
2014,08,03,03,19,17.10
2014,08,03,03,20,17.00
2014,08,03,03,21,17.00
2014,08,03,03,22,17.00
2014,08,03,03,23,17.00
2014,08,03,03,24,17.00
2014,08,03,03,25,17.00
2014,08,03,03,26,17.00
2014,08,03,03,27,17.00
2014,08,03,03,28,17.00
2014,08,03,03,29,17.00
2014,08,03,03,30,17.00
2014,08,03,03,31,17.00
2014,08,03,03,32,17.00
2014,08,03,03,33,17.00
2014,08,03,03,34,17.00
2014,08,03,03,35,16.90
2014,08,03,03,36,16.90
2014,08,03,03,37,16.90
2014,08,03,03,38,16.90
2014,08,03,03,39,16.90
2014,08,03,03,40,16.90
2014,08,03,03,41,16.80
2014,08,03,03,42,16.80
2014,08,03,03,43,16.80
2014,08,03,03,44,16.80
2014,08,03,03,45,16.70
2014,08,03,03,46,16.70
2014,08,03,03,47,16.70
2014,08,03,03,48,16.70
2014,08,03,03,49,16.70
2014,08,03,03,50,16.60
2014,08,03,03,51,16.60
2014,08,03,03,52,16.60
2014,08,03,03,53,16.60
2014,08,03,03,54,16.60
2014,08,03,03,55,16.60
2014,08,03,03,56,16.60
2014,08,03,03,57,16.60
2014,08,03,03,58,16.50
2014,08,03,03,59,16.50
2014,08,03,04,00,16.50
2014,08,03,04,01,16.50
2014,08,03,04,02,16.40
2014,08,03,04,03,16.40
2014,08,03,04,04,16.40
2014,08,03,04,05,16.40
2014,08,03,04,06,16.40
2014,08,03,04,07,16.40
2014,08,03,04,08,16.30
2014,08,03,04,09,16.30
2014,08,03,04,10,16.30
2014,08,03,04,11,16.30
2014,08,03,04,12,16.30
2014,08,03,04,13,16.30
2014,08,03,04,14,16.20
2014,08,03,04,15,16.20
2014,08,03,04,16,16.20
2014,08,03,04,17,16.10
2014,08,03,04,18,16.10
2014,08,03,04,19,16.10
2014,08,03,04,20,16.10
2014,08,03,04,21,16.00
2014,08,03,04,22,16.00
2014,08,03,04,23,16.00
2014,08,03,04,24,15.90
2014,08,03,04,25,15.90
2014,08,03,04,26,15.90
2014,08,03,04,27,15.80
2014,08,03,04,28,15.80
2014,08,03,04,29,15.80
2014,08,03,04,30,15.80
2014,08,03,04,31,15.80
2014,08,03,04,32,15.80
2014,08,03,04,33,15.80
2014,08,03,04,34,15.70
2014,08,03,04,35,15.80
2014,08,03,04,36,15.80
2014,08,03,04,37,15.80
2014,08,03,04,38,15.80
2014,08,03,04,39,15.80
2014,08,03,04,40,15.90
2014,08,03,04,41,15.90
2014,08,03,04,42,15.90
2014,08,03,04,43,15.90
2014,08,03,04,44,15.90
2014,08,03,04,45,15.90
2014,08,03,04,46,15.90
2014,08,03,04,47,15.90
2014,08,03,04,48,15.90
2014,08,03,04,49,15.90
2014,08,03,04,50,15.90
2014,08,03,04,51,15.90
2014,08,03,04,52,15.90
2014,08,03,04,53,15.90
2014,08,03,04,54,15.90
2014,08,03,04,55,15.80
2014,08,03,04,56,15.80
2014,08,03,04,57,15.80
2014,08,03,04,58,15.80
2014,08,03,04,59,15.80
2014,08,03,05,00,15.70
2014,08,03,05,01,15.70
2014,08,03,05,02,15.60
2014,08,03,05,03,15.60
2014,08,03,05,04,15.60
2014,08,03,05,05,15.50
2014,08,03,05,06,15.50
2014,08,03,05,07,15.50
2014,08,03,05,08,15.40
2014,08,03,05,09,15.40
2014,08,03,05,10,15.40
2014,08,03,05,11,15.40
2014,08,03,05,12,15.40
2014,08,03,05,13,15.30
2014,08,03,05,14,15.30
2014,08,03,05,15,15.30
2014,08,03,05,16,15.30
2014,08,03,05,17,15.30
2014,08,03,05,18,15.30
2014,08,03,05,19,15.30
2014,08,03,05,20,15.30
2014,08,03,05,21,15.20
2014,08,03,05,22,15.20
2014,08,03,05,23,15.20
2014,08,03,05,24,15.20
2014,08,03,05,25,15.20
2014,08,03,05,26,15.20
2014,08,03,05,27,15.10
2014,08,03,05,28,15.10
2014,08,03,05,29,15.10
2014,08,03,05,30,15.10
2014,08,03,05,31,15.10
2014,08,03,05,32,15.10
2014,08,03,05,33,15.00
2014,08,03,05,34,15.00
2014,08,03,05,35,15.00
2014,08,03,05,36,14.90
2014,08,03,05,37,14.90
2014,08,03,05,38,14.90
2014,08,03,05,39,14.90
2014,08,03,05,40,14.90
2014,08,03,05,41,14.80
2014,08,03,05,42,14.80
2014,08,03,05,43,14.80
2014,08,03,05,44,14.80
2014,08,03,05,45,14.80
2014,08,03,05,46,14.80
2014,08,03,05,47,14.80
2014,08,03,05,48,14.80
2014,08,03,05,49,14.80
2014,08,03,05,50,14.80
2014,08,03,05,51,14.70
2014,08,03,05,52,14.70
2014,08,03,05,53,14.70
2014,08,03,05,54,14.70
2014,08,03,05,55,14.70
2014,08,03,05,56,14.70
2014,08,03,05,57,14.70
2014,08,03,05,58,14.70
2014,08,03,05,59,14.70
2014,08,03,06,00,14.70
2014,08,03,06,01,14.70
2014,08,03,06,02,14.60
2014,08,03,06,03,14.60
2014,08,03,06,04,14.60
2014,08,03,06,05,14.60
2014,08,03,06,06,14.60
2014,08,03,06,07,14.60
2014,08,03,06,08,14.70
2014,08,03,06,09,14.70
2014,08,03,06,10,14.70
2014,08,03,06,11,14.80
2014,08,03,06,12,14.80
2014,08,03,06,13,14.80
2014,08,03,06,14,14.90
2014,08,03,06,15,14.90
2014,08,03,06,16,15.00
2014,08,03,06,17,15.00
2014,08,03,06,18,15.00
2014,08,03,06,19,15.10
2014,08,03,06,20,15.10
2014,08,03,06,21,15.10
2014,08,03,06,22,15.10
2014,08,03,06,23,15.10
2014,08,03,06,24,15.10
2014,08,03,06,25,15.20
2014,08,03,06,26,15.20
2014,08,03,06,27,15.20
2014,08,03,06,28,15.30
2014,08,03,06,29,15.30
2014,08,03,06,30,15.30
2014,08,03,06,31,15.30
2014,08,03,06,32,15.40
2014,08,03,06,33,15.40
2014,08,03,06,34,15.50
2014,08,03,06,35,15.50
2014,08,03,06,36,15.60
2014,08,03,06,37,15.60
2014,08,03,06,38,15.70
2014,08,03,06,39,15.70
2014,08,03,06,40,15.80
2014,08,03,06,41,15.80
2014,08,03,06,42,15.90
2014,08,03,06,43,15.90
2014,08,03,06,44,16.00
2014,08,03,06,45,16.00
2014,08,03,06,46,16.00
2014,08,03,06,47,16.10
2014,08,03,06,48,16.10
2014,08,03,06,49,16.10
2014,08,03,06,50,16.10
2014,08,03,06,51,16.20
2014,08,03,06,52,16.20
2014,08,03,06,53,16.20
2014,08,03,06,54,16.30
2014,08,03,06,55,16.30
2014,08,03,06,56,16.30
2014,08,03,06,57,16.30
2014,08,03,06,58,16.40
2014,08,03,06,59,16.40
2014,08,03,07,00,16.40
2014,08,03,07,01,16.50
2014,08,03,07,02,16.50
2014,08,03,07,03,16.60
2014,08,03,07,04,16.60
2014,08,03,07,05,16.70
2014,08,03,07,06,16.80
2014,08,03,07,07,16.80
2014,08,03,07,08,16.90
2014,08,03,07,09,17.00
2014,08,03,07,10,17.00
2014,08,03,07,11,17.10
2014,08,03,07,12,17.10
2014,08,03,07,13,17.20
2014,08,03,07,14,17.20
2014,08,03,07,15,17.30
2014,08,03,07,16,17.30
2014,08,03,07,17,17.30
2014,08,03,07,18,17.30
2014,08,03,07,19,17.40
2014,08,03,07,20,17.40
2014,08,03,07,21,17.40
2014,08,03,07,22,17.50
2014,08,03,07,23,17.50
2014,08,03,07,24,17.50
2014,08,03,07,25,17.50
2014,08,03,07,26,17.60
2014,08,03,07,27,17.60
2014,08,03,07,28,17.70
2014,08,03,07,29,17.70
2014,08,03,07,30,17.70
2014,08,03,07,31,17.80
2014,08,03,07,32,17.80
2014,08,03,07,33,17.80
2014,08,03,07,34,17.90
2014,08,03,07,35,17.90
2014,08,03,07,36,18.00
2014,08,03,07,37,18.00
2014,08,03,07,38,18.00
2014,08,03,07,39,18.00
2014,08,03,07,40,18.00
2014,08,03,07,41,18.10
2014,08,03,07,42,18.10
2014,08,03,07,43,18.10
2014,08,03,07,44,18.00
2014,08,03,07,45,18.00
2014,08,03,07,46,17.90
2014,08,03,07,47,17.90
2014,08,03,07,48,17.90
2014,08,03,07,49,17.90
2014,08,03,07,50,18.00
2014,08,03,07,51,18.00
2014,08,03,07,52,18.10
2014,08,03,07,53,18.10
2014,08,03,07,54,18.10
2014,08,03,07,55,18.10
2014,08,03,07,56,18.10
2014,08,03,07,57,18.10
2014,08,03,07,58,18.00
2014,08,03,07,59,18.10
2014,08,03,08,00,18.10
2014,08,03,08,01,18.10
2014,08,03,08,02,18.10
2014,08,03,08,03,18.10
2014,08,03,08,04,18.20
2014,08,03,08,05,18.30
2014,08,03,08,06,18.30
2014,08,03,08,07,18.40
2014,08,03,08,08,18.40
2014,08,03,08,09,18.40
2014,08,03,08,10,18.40
2014,08,03,08,11,18.50
2014,08,03,08,12,18.50
2014,08,03,08,13,18.60
2014,08,03,08,14,18.60
2014,08,03,08,15,18.60
2014,08,03,08,16,18.70
2014,08,03,08,17,18.70
2014,08,03,08,18,18.80
2014,08,03,08,19,18.90
2014,08,03,08,20,19.00
2014,08,03,08,21,19.00
2014,08,03,08,22,19.10
2014,08,03,08,23,19.10
2014,08,03,08,24,19.00
2014,08,03,08,25,19.00
2014,08,03,08,26,19.10
2014,08,03,08,27,19.00
2014,08,03,08,28,19.10
2014,08,03,08,29,19.00
2014,08,03,08,30,19.10
2014,08,03,08,31,19.10
2014,08,03,08,32,19.10
2014,08,03,08,33,19.20
2014,08,03,08,34,19.20
2014,08,03,08,35,19.30
2014,08,03,08,36,19.40
2014,08,03,08,37,19.40
2014,08,03,08,38,19.40
2014,08,03,08,39,19.40
2014,08,03,08,40,19.40
2014,08,03,08,41,19.40
2014,08,03,08,42,19.50
2014,08,03,08,43,19.60
2014,08,03,08,44,19.60
2014,08,03,08,45,19.70
2014,08,03,08,46,19.80
2014,08,03,08,47,19.80
2014,08,03,08,48,19.90
2014,08,03,08,49,19.90
2014,08,03,08,50,20.00
2014,08,03,08,51,20.10
2014,08,03,08,52,20.10
2014,08,03,08,53,20.20
2014,08,03,08,54,20.30
2014,08,03,08,55,20.30
2014,08,03,08,56,20.30
2014,08,03,08,57,20.30
2014,08,03,08,58,20.40
2014,08,03,08,59,20.40
2014,08,03,09,00,20.50
2014,08,03,09,01,20.60
2014,08,03,09,02,20.70
2014,08,03,09,03,20.70
2014,08,03,09,04,20.80
2014,08,03,09,05,20.80
2014,08,03,09,06,20.90
2014,08,03,09,07,20.90
2014,08,03,09,08,20.90
2014,08,03,09,09,20.90
2014,08,03,09,10,20.80
2014,08,03,09,11,20.90
2014,08,03,09,12,20.90
2014,08,03,09,13,20.90
2014,08,03,09,14,21.00
2014,08,03,09,15,21.10
2014,08,03,09,16,21.10
2014,08,03,09,17,21.20
2014,08,03,09,18,21.30
2014,08,03,09,19,21.30
2014,08,03,09,20,21.40
2014,08,03,09,21,21.50
2014,08,03,09,22,21.50
2014,08,03,09,23,21.60
2014,08,03,09,24,21.60
2014,08,03,09,25,21.60
2014,08,03,09,26,21.60
2014,08,03,09,27,21.60
2014,08,03,09,28,21.60
2014,08,03,09,29,21.50
2014,08,03,09,30,21.50
2014,08,03,09,31,21.60
2014,08,03,09,32,21.70
2014,08,03,09,33,21.80
2014,08,03,09,34,21.80
2014,08,03,09,35,21.90
2014,08,03,09,36,21.90
2014,08,03,09,37,22.00
2014,08,03,09,38,22.10
2014,08,03,09,39,22.20
2014,08,03,09,40,22.20
2014,08,03,09,41,22.30
2014,08,03,09,42,22.20
2014,08,03,09,43,22.20
2014,08,03,09,44,22.20
2014,08,03,09,45,22.30
2014,08,03,09,46,22.30
2014,08,03,09,47,22.30
2014,08,03,09,48,22.30
2014,08,03,09,49,22.20
2014,08,03,09,50,22.20
2014,08,03,09,51,22.30
2014,08,03,09,52,22.30
2014,08,03,09,53,22.40
2014,08,03,09,54,22.40
2014,08,03,09,55,22.40
2014,08,03,09,56,22.30
2014,08,03,09,57,22.30
2014,08,03,09,58,22.30
2014,08,03,09,59,22.30
2014,08,03,10,00,22.20
2014,08,03,10,01,22.20
2014,08,03,10,02,22.20
2014,08,03,10,03,22.30
2014,08,03,10,04,22.40
2014,08,03,10,05,22.50
2014,08,03,10,06,22.60
2014,08,03,10,07,22.60
2014,08,03,10,08,22.70
2014,08,03,10,09,22.80
2014,08,03,10,10,22.80
2014,08,03,10,11,22.80
2014,08,03,10,12,22.70
2014,08,03,10,13,22.70
2014,08,03,10,14,22.60
2014,08,03,10,15,22.50
2014,08,03,10,16,22.30
2014,08,03,10,17,22.20
2014,08,03,10,18,22.10
2014,08,03,10,19,22.10
2014,08,03,10,20,22.20
2014,08,03,10,21,22.30
2014,08,03,10,22,22.30
2014,08,03,10,23,22.20
2014,08,03,10,24,22.20
2014,08,03,10,25,22.10
2014,08,03,10,26,22.10
2014,08,03,10,27,22.10
2014,08,03,10,28,22.20
2014,08,03,10,29,22.20
2014,08,03,10,30,22.20
2014,08,03,10,31,22.30
2014,08,03,10,32,22.30
2014,08,03,10,33,22.40
2014,08,03,10,34,22.50
2014,08,03,10,35,22.60
2014,08,03,10,36,22.70
2014,08,03,10,37,22.70
2014,08,03,10,38,22.60
2014,08,03,10,39,22.60
2014,08,03,10,40,22.60
2014,08,03,10,41,22.70
2014,08,03,10,42,22.80
2014,08,03,10,43,23.00
2014,08,03,10,44,23.10
2014,08,03,10,45,23.10
2014,08,03,10,46,23.20
2014,08,03,10,47,23.20
2014,08,03,10,48,23.20
2014,08,03,10,49,23.20
2014,08,03,10,50,23.20
2014,08,03,10,51,23.10
2014,08,03,10,52,23.10
2014,08,03,10,53,23.00
2014,08,03,10,54,23.00
2014,08,03,10,55,23.00
2014,08,03,10,56,22.90
2014,08,03,10,57,22.90
2014,08,03,10,58,22.90
2014,08,03,10,59,22.90
2014,08,03,11,00,22.80
2014,08,03,11,01,22.80
2014,08,03,11,02,22.70
2014,08,03,11,03,22.70
2014,08,03,11,04,22.70
2014,08,03,11,05,22.70
2014,08,03,11,06,22.80
2014,08,03,11,07,22.80
2014,08,03,11,08,22.80
2014,08,03,11,09,22.80
2014,08,03,11,10,22.80
2014,08,03,11,11,22.80
2014,08,03,11,12,22.80
2014,08,03,11,13,22.90
2014,08,03,11,14,22.90
2014,08,03,11,15,22.90
2014,08,03,11,16,23.00
2014,08,03,11,17,23.00
2014,08,03,11,18,23.10
2014,08,03,11,19,23.10
2014,08,03,11,20,23.20
2014,08,03,11,21,23.30
2014,08,03,11,22,23.30
2014,08,03,11,23,23.40
2014,08,03,11,24,23.30
2014,08,03,11,25,23.30
2014,08,03,11,26,23.30
2014,08,03,11,27,23.30
2014,08,03,11,28,23.20
2014,08,03,11,29,23.30
2014,08,03,11,30,23.30
2014,08,03,11,31,23.30
2014,08,03,11,32,23.40
2014,08,03,11,33,23.50
2014,08,03,11,34,23.60
2014,08,03,11,35,23.70
2014,08,03,11,36,23.70
2014,08,03,11,37,23.80
2014,08,03,11,38,23.70
2014,08,03,11,39,23.70
2014,08,03,11,40,23.70
2014,08,03,11,41,23.70
2014,08,03,11,42,23.70
2014,08,03,11,43,23.70
2014,08,03,11,44,23.70
2014,08,03,11,45,23.70
2014,08,03,11,46,23.80
2014,08,03,11,47,23.80
2014,08,03,11,48,23.80
2014,08,03,11,49,23.80
2014,08,03,11,50,23.90
2014,08,03,11,51,23.90
2014,08,03,11,52,23.90
2014,08,03,11,53,23.90
2014,08,03,11,54,23.90
2014,08,03,11,55,23.90
2014,08,03,11,56,23.90
2014,08,03,11,57,24.00
2014,08,03,11,58,24.00
2014,08,03,11,59,24.10
2014,08,03,12,00,24.20
2014,08,03,12,01,24.30
2014,08,03,12,02,24.30
2014,08,03,12,03,24.30
2014,08,03,12,04,24.30
2014,08,03,12,05,24.30
2014,08,03,12,06,24.30
2014,08,03,12,07,24.20
2014,08,03,12,08,24.20
2014,08,03,12,09,24.20
2014,08,03,12,10,24.20
2014,08,03,12,11,24.20
2014,08,03,12,12,24.20
2014,08,03,12,13,24.20
2014,08,03,12,14,24.10
2014,08,03,12,15,24.10
2014,08,03,12,16,24.00
2014,08,03,12,17,23.90
2014,08,03,12,18,23.90
2014,08,03,12,19,23.90
2014,08,03,12,20,23.90
2014,08,03,12,21,23.90
2014,08,03,12,22,24.00
2014,08,03,12,23,24.00
2014,08,03,12,24,24.00
2014,08,03,12,25,24.00
2014,08,03,12,26,23.90
2014,08,03,12,27,23.90
2014,08,03,12,28,23.90
2014,08,03,12,29,23.80
2014,08,03,12,30,23.80
2014,08,03,12,31,23.80
2014,08,03,12,32,23.80
2014,08,03,12,33,23.90
2014,08,03,12,34,23.90
2014,08,03,12,35,24.00
2014,08,03,12,36,23.90
2014,08,03,12,37,24.00
2014,08,03,12,38,24.00
2014,08,03,12,39,24.10
2014,08,03,12,40,24.20
2014,08,03,12,41,24.30
2014,08,03,12,42,24.30
2014,08,03,12,43,24.20
2014,08,03,12,44,24.20
2014,08,03,12,45,24.20
2014,08,03,12,46,24.20
2014,08,03,12,47,24.20
2014,08,03,12,48,24.30
2014,08,03,12,49,24.30
2014,08,03,12,50,24.30
2014,08,03,12,51,24.30
2014,08,03,12,52,24.30
2014,08,03,12,53,24.30
2014,08,03,12,54,24.40
2014,08,03,12,55,24.50
2014,08,03,12,56,24.50
2014,08,03,12,57,24.60
2014,08,03,12,58,24.60
2014,08,03,12,59,24.50
2014,08,03,13,00,24.50
2014,08,03,13,01,24.50
2014,08,03,13,02,24.40
2014,08,03,13,03,24.40
2014,08,03,13,04,24.30
2014,08,03,13,05,24.30
2014,08,03,13,06,24.20
2014,08,03,13,07,24.20
2014,08,03,13,08,24.20
2014,08,03,13,09,24.20
2014,08,03,13,10,24.30
2014,08,03,13,11,24.30
2014,08,03,13,12,24.40
2014,08,03,13,13,24.50
2014,08,03,13,14,24.60
2014,08,03,13,15,24.60
2014,08,03,13,16,24.60
2014,08,03,13,17,24.60
2014,08,03,13,18,24.60
2014,08,03,13,19,24.60
2014,08,03,13,20,24.70
2014,08,03,13,21,24.70
2014,08,03,13,22,24.80
2014,08,03,13,23,24.80
2014,08,03,13,24,25.00
2014,08,03,13,25,25.10
2014,08,03,13,26,25.20
2014,08,03,13,27,25.30
2014,08,03,13,28,25.40
2014,08,03,13,29,25.50
2014,08,03,13,30,25.50
2014,08,03,13,31,25.60
2014,08,03,13,32,25.60
2014,08,03,13,33,25.70
2014,08,03,13,34,25.70
2014,08,03,13,35,25.70
2014,08,03,13,36,25.70
2014,08,03,13,37,25.80
2014,08,03,13,38,25.80
2014,08,03,13,39,25.90
2014,08,03,13,40,25.90
2014,08,03,13,41,25.90
2014,08,03,13,42,25.90
2014,08,03,13,43,25.90
2014,08,03,13,44,25.90
2014,08,03,13,45,25.80
2014,08,03,13,46,25.80
2014,08,03,13,47,25.80
2014,08,03,13,48,25.70
2014,08,03,13,49,25.80
2014,08,03,13,50,25.80
2014,08,03,13,51,25.90
2014,08,03,13,52,26.00
2014,08,03,13,53,26.10
2014,08,03,13,54,26.10
2014,08,03,13,55,26.10
2014,08,03,13,56,26.10
2014,08,03,13,57,26.10
2014,08,03,13,58,26.10
2014,08,03,13,59,26.10
2014,08,03,14,00,26.10
2014,08,03,14,01,26.10
2014,08,03,14,02,26.10
2014,08,03,14,03,26.10
2014,08,03,14,04,26.10
2014,08,03,14,05,26.10
2014,08,03,14,06,26.10
2014,08,03,14,07,26.10
2014,08,03,14,08,26.10
2014,08,03,14,09,26.10
2014,08,03,14,10,26.10
2014,08,03,14,11,26.10
2014,08,03,14,12,26.10
2014,08,03,14,13,26.10
2014,08,03,14,14,26.10
2014,08,03,14,15,26.10
2014,08,03,14,16,26.20
2014,08,03,14,17,26.30
2014,08,03,14,18,26.50
2014,08,03,14,19,26.50
2014,08,03,14,20,26.50
2014,08,03,14,21,26.60
2014,08,03,14,22,26.50
2014,08,03,14,23,26.50
2014,08,03,14,24,26.50
2014,08,03,14,25,26.50
2014,08,03,14,26,26.50
2014,08,03,14,27,26.40
2014,08,03,14,28,26.40
2014,08,03,14,29,26.40
2014,08,03,14,30,26.50
2014,08,03,14,31,26.50
2014,08,03,14,32,26.60
2014,08,03,14,33,26.60
2014,08,03,14,34,26.60
2014,08,03,14,35,26.50
2014,08,03,14,36,26.50
2014,08,03,14,37,26.50
2014,08,03,14,38,26.50
2014,08,03,14,39,26.40
2014,08,03,14,40,26.30
2014,08,03,14,41,26.20
2014,08,03,14,42,26.30
2014,08,03,14,43,26.30
2014,08,03,14,44,26.30
2014,08,03,14,45,26.40
2014,08,03,14,46,26.40
2014,08,03,14,47,26.50
2014,08,03,14,48,26.50
2014,08,03,14,49,26.50
2014,08,03,14,50,26.60
2014,08,03,14,51,26.50
2014,08,03,14,52,26.50
2014,08,03,14,53,26.50
2014,08,03,14,54,26.40
2014,08,03,14,55,26.40
2014,08,03,14,56,26.30
2014,08,03,14,57,26.40
2014,08,03,14,58,26.40
2014,08,03,14,59,26.40
2014,08,03,15,00,26.50
2014,08,03,15,01,26.40
2014,08,03,15,02,26.40
2014,08,03,15,03,26.40
2014,08,03,15,04,26.40
2014,08,03,15,05,26.30
2014,08,03,15,06,26.40
2014,08,03,15,07,26.40
2014,08,03,15,08,26.50
2014,08,03,15,09,26.60
2014,08,03,15,10,26.70
2014,08,03,15,11,26.80
2014,08,03,15,12,26.80
2014,08,03,15,13,26.80
2014,08,03,15,14,26.80
2014,08,03,15,15,26.70
2014,08,03,15,16,26.70
2014,08,03,15,17,26.70
2014,08,03,15,18,26.70
2014,08,03,15,19,26.70
2014,08,03,15,20,26.70
2014,08,03,15,21,26.80
2014,08,03,15,22,26.80
2014,08,03,15,23,26.80
2014,08,03,15,24,26.80
2014,08,03,15,25,26.80
2014,08,03,15,26,26.80
2014,08,03,15,27,26.80
2014,08,03,15,28,26.90
2014,08,03,15,29,26.90
2014,08,03,15,30,27.00
2014,08,03,15,31,27.00
2014,08,03,15,32,27.00
2014,08,03,15,33,27.00
2014,08,03,15,34,27.10
2014,08,03,15,35,27.10
2014,08,03,15,36,27.00
2014,08,03,15,37,27.00
2014,08,03,15,38,27.10
2014,08,03,15,39,27.10
2014,08,03,15,40,27.10
2014,08,03,15,41,27.20
2014,08,03,15,42,27.20
2014,08,03,15,43,27.30
2014,08,03,15,44,27.30
2014,08,03,15,45,27.40
2014,08,03,15,46,27.40
2014,08,03,15,47,27.40
2014,08,03,15,48,27.40
2014,08,03,15,49,27.40
2014,08,03,15,50,27.50
2014,08,03,15,51,27.60
2014,08,03,15,52,27.60
2014,08,03,15,53,27.70
2014,08,03,15,54,27.70
2014,08,03,15,55,27.70
2014,08,03,15,56,27.70
2014,08,03,15,57,27.70
2014,08,03,15,58,27.70
2014,08,03,15,59,27.70
2014,08,03,16,00,27.60
2014,08,03,16,01,27.70
2014,08,03,16,02,27.70
2014,08,03,16,03,27.70
2014,08,03,16,04,27.80
2014,08,03,16,05,27.80
2014,08,03,16,06,27.80
2014,08,03,16,07,27.80
2014,08,03,16,08,27.80
2014,08,03,16,09,27.80
2014,08,03,16,10,27.80
2014,08,03,16,11,27.80
2014,08,03,16,12,27.80
2014,08,03,16,13,27.90
2014,08,03,16,14,27.90
2014,08,03,16,15,28.00
2014,08,03,16,16,28.00
2014,08,03,16,17,28.00
2014,08,03,16,18,28.10
2014,08,03,16,19,28.10
2014,08,03,16,20,28.20
2014,08,03,16,21,28.30
2014,08,03,16,22,28.40
2014,08,03,16,23,28.40
2014,08,03,16,24,28.40
2014,08,03,16,25,28.40
2014,08,03,16,26,28.30
2014,08,03,16,27,28.30
2014,08,03,16,28,28.30
2014,08,03,16,29,28.20
2014,08,03,16,30,28.20
2014,08,03,16,31,28.20
2014,08,03,16,32,28.20
2014,08,03,16,33,28.20
2014,08,03,16,34,28.20
2014,08,03,16,35,28.20
2014,08,03,16,36,28.20
2014,08,03,16,37,28.20
2014,08,03,16,38,28.20
2014,08,03,16,39,28.20
2014,08,03,16,40,28.20
2014,08,03,16,41,28.20
2014,08,03,16,42,28.20
2014,08,03,16,43,28.20
2014,08,03,16,44,28.20
2014,08,03,16,45,28.20
2014,08,03,16,46,28.20
2014,08,03,16,47,28.10
2014,08,03,16,48,28.10
2014,08,03,16,49,28.10
2014,08,03,16,50,28.10
2014,08,03,16,51,28.10
2014,08,03,16,52,28.10
2014,08,03,16,53,28.10
2014,08,03,16,54,28.10
2014,08,03,16,55,28.10
2014,08,03,16,56,28.10
2014,08,03,16,57,28.10
2014,08,03,16,58,28.00
2014,08,03,16,59,28.00
2014,08,03,17,00,28.00
2014,08,03,17,01,28.00
2014,08,03,17,02,28.10
2014,08,03,17,03,28.10
2014,08,03,17,04,28.10
2014,08,03,17,05,28.10
2014,08,03,17,06,28.10
2014,08,03,17,07,28.10
2014,08,03,17,08,28.10
2014,08,03,17,09,28.10
2014,08,03,17,10,28.10
2014,08,03,17,11,28.10
2014,08,03,17,12,28.10
2014,08,03,17,13,28.00
2014,08,03,17,14,28.00
2014,08,03,17,15,28.00
2014,08,03,17,16,28.00
2014,08,03,17,17,28.10
2014,08,03,17,18,28.10
2014,08,03,17,19,28.10